Location: Alando
(42.3054°N, 9.2895°E)
Time: 21:05:55
(UTC+00:00)

Meteor 2-17 Rocket - Pass Details

Date: 09 April 2020
Orbit: 935 x 956 km, 82.5° (Epoch: 25 May)

Event Time Altitude Azimuth Distance (km) Brightness Sun altitude
Rises 18:59:34 0° 353° (N) 3,642 7.9 -11.7°
Reaches altitude 10° 19:02:05 10° 355° (N) 2,693 7.2 -12.1°
Maximum altitude 19:08:16 76° 81° (E) 987 4.4 -13.2°
Drops below altitude 10° 19:14:24 10° 167° (SSE) 2,676 6.4 -14.2°
Enters shadow 19:16:28 - 169° (S) 3,458 7.0 -14.5°
